Group_ship,Cruise,JD_GMT,Date_DDMMYYYY,TIME_HH:MM:SS,Lat_dec_degree,Long_dec_degree,xCO2eq_ppm,xCO2a_ppm,Pres_Equi_hPa,Pres_sealevel_hPa,EqTemp_C,SST(TSG)_C,Sal(TSG)_Permil,Water_flow_l/min,Gasflow_IR_ml/min,Temp_IR_C,Pres_IR_hPa,Ship_heading_true_degree,Ship_speed_knot,Wind_dir_rel_degree,Wind_speed_rel_m/s,fCO2W@SST_uatm,Qcflag_water,fCO2a_uatm,Qcflag_air,dfCO2_uatm,Fluoro_ug/l,Wind_speed_true_m/s,Wind_dir_true_degree,Air_temp_C,Oxygen
AOML_Explorer,Ex0706E,36.015,05022007,0:21:40,25.967,-79.699,366.78,-9.00,1020.12,1017.60,25.73,25.99,36.062,2.095,90.806,32.034,1020.12,61.800,21.300,342.000,23.676,360.24,2,-9.00,9,-9.00,0.08,13.32,36.09,22.44,231.41
AOML_Explorer,Ex0706E,36.017,05022007,0:24:13,25.974,-79.684,367.02,-9.00,1020.06,1017.30,25.76,26.00,36.087,2.095,91.147,32.038,1020.06,62.300,21.300,338.000,23.676,360.19,2,-9.00,9,-9.00,0.08,13.72,29.24,22.25,231.85
AOML_Explorer,Ex0706E,36.019,05022007,0:26:46,25.981,-79.669,367.16,-9.00,1020.06,1018.10,25.77,26.02,36.115,2.122,91.011,32.040,1020.06,62.200,21.300,343.000,24.191,360.36,2,-9.00,9,-9.00,0.08,13.75,38.42,22.28,230.17
AOML_Explorer,Ex0706E,36.020,05022007,0:29:19,25.988,-79.654,367.01,-9.00,1020.03,1016.60,25.79,26.04,36.128,2.090,91.075,32.046,1020.03,65.400,21.100,336.000,23.676,360.14,2,-9.00,9,-9.00,0.07,14.09,28.30,22.09,229.79
AOML_Explorer,Ex0706E,36.022,05022007,0:31:52,25.994,-79.639,366.76,-9.00,1020.10,1017.30,25.80,26.03,36.133,2.094,91.175,32.053,1020.10,65.600,21.100,336.000,23.162,359.59,2,-9.00,9,-9.00,0.08,13.62,27.55,22.14,229.96
AOML_Explorer,Ex0706E,36.024,05022007,0:34:25,26.001,-79.624,366.43,-9.00,1020.16,1016.50,25.81,26.02,36.136,2.061,90.760,32.057,1020.16,65.600,20.900,336.000,23.162,359.10,2,-9.00,9,-9.00,0.07,13.76,27.01,21.97,229.84
AOML_Explorer,Ex0706E,36.026,05022007,0:36:58,26.007,-79.609,366.22,-9.00,1020.28,1017.60,25.80,26.02,36.135,2.059,90.883,32.068,1020.28,65.700,21.000,335.000,23.162,358.99,2,-9.00,9,-9.00,0.08,13.87,24.93,21.92,229.71
AOML_Explorer,Ex0706E,36.027,05022007,0:39:31,26.013,-79.594,366.22,-9.00,1020.20,1017.80,25.80,26.01,36.146,2.081,90.634,32.074,1020.20,65.700,21.000,338.000,24.191,358.82,2,-9.00,9,-9.00,0.08,14.50,31.12,21.78,229.60
AOML_Explorer,Ex0706E,36.029,05022007,0:42:04,26.019,-79.580,366.45,-9.00,1020.54,1018.20,25.80,26.00,36.130,2.072,91.285,32.082,1020.54,65.900,21.000,339.000,23.162,359.06,2,-9.00,9,-9.00,0.08,13.42,31.62,21.66,229.65
AOML_Explorer,Ex0706E,36.031,05022007,0:44:37,26.025,-79.564,366.31,-9.00,1020.66,1017.40,25.79,26.00,36.121,2.094,91.065,32.089,1020.66,67.100,20.900,331.000,23.162,359.21,2,-9.00,9,-9.00,0.08,14.55,18.95,21.66,229.39
AOML_Explorer,Ex0706E,36.033,05022007,0:47:10,26.032,-79.550,366.52,-9.00,1020.42,1016.90,25.79,25.97,36.129,2.093,91.134,32.097,1020.42,66.800,20.900,333.000,23.676,358.91,2,-9.00,9,-9.00,0.08,14.76,22.44,21.43,229.35
AOML_Explorer,Ex0706E,36.035,05022007,0:49:43,26.038,-79.535,367.03,-9.00,1020.73,1017.40,25.78,25.99,36.127,2.120,91.090,32.102,1020.73,66.200,20.900,336.000,24.191,359.90,2,-9.00,9,-9.00,0.08,14.78,28.36,21.15,229.68
AOML_Explorer,Ex0706E,36.036,05022007,0:52:16,26.044,-79.520,365.98,-9.00,1020.50,1017.30,25.77,25.98,36.126,2.091,91.748,32.109,1020.50,67.000,20.900,336.000,22.132,358.83,2,-9.00,9,-9.00,0.08,12.91,25.26,21.08,229.54
AOML_Explorer,Ex0706E,36.038,05022007,0:54:49,26.050,-79.505,365.51,-9.00,1020.91,1017.20,25.77,25.95,36.134,2.083,91.168,32.114,1020.91,66.400,20.800,335.000,24.191,357.99,2,-9.00,9,-9.00,0.08,14.99,26.36,21.2,229.20
AOML_Explorer,Ex0706E,36.040,05022007,0:57:22,26.056,-79.490,365.53,-9.00,1020.81,1017.50,25.76,25.93,36.125,2.126,91.326,32.118,1020.81,66.300,20.700,333.000,24.191,357.83,2,-9.00,9,-9.00,0.07,15.38,22.20,21.04,229.46
AOML_Explorer,Ex0706E,36.042,05022007,0:59:55,26.062,-79.475,365.86,-9.00,1020.49,1017.00,25.73,25.91,36.115,2.093,91.218,32.123,1020.49,66.200,20.700,331.000,23.676,358.23,2,-9.00,9,-9.00,0.08,15.18,18.28,20.89,229.38
AOML_Explorer,Ex0706E,36.057,05022007,1:21:40,26.113,-79.351,367.61,-9.00,1021.12,1018.00,25.64,25.85,36.214,2.107,91.305,32.157,1021.12,66.100,20.500,338.000,23.676,360.71,2,-9.00,9,-9.00,0.07,14.43,28.47,20.61,229.78
AOML_Explorer,Ex0706E,36.058,05022007,1:24:13,26.119,-79.336,367.91,-9.00,1020.99,1018.50,25.64,25.87,36.196,2.126,90.929,32.152,1020.99,66.100,20.800,337.000,24.191,361.19,2,-9.00,9,-9.00,0.07,14.94,26.82,20.72,229.62
AOML_Explorer,Ex0706E,36.060,05022007,1:26:46,26.124,-79.321,367.62,-9.00,1020.93,1018.70,25.66,25.81,36.231,2.088,90.766,32.149,1020.93,66.900,21.300,340.000,24.191,359.76,2,-9.00,9,-9.00,0.08,14.45,30.84,20.75,231.95
AOML_Explorer,Ex0706E,36.062,05022007,1:29:19,26.131,-79.305,367.83,-9.00,1020.97,1017.50,25.62,25.81,36.240,2.094,91.096,32.148,1020.97,67.600,21.600,335.000,25.220,360.53,2,-9.00,9,-9.00,0.09,16.04,23.30,20.74,230.35
AOML_Explorer,Ex0706E,36.064,05022007,1:31:52,26.137,-79.289,367.73,-9.00,1020.84,1017.40,25.62,25.80,36.254,2.114,91.164,32.145,1020.84,67.000,21.700,332.000,24.706,360.33,2,-9.00,9,-9.00,0.09,15.90,18.00,20.93,228.81
AOML_Explorer,Ex0706E,36.066,05022007,1:34:25,26.142,-79.274,368.21,-9.00,1021.35,1018.50,25.61,25.74,36.280,2.113,91.445,32.144,1021.35,67.200,21.600,337.000,23.676,360.19,2,-9.00,9,-9.00,0.11,14.35,23.58,20.86,227.89
AOML_Explorer,Ex0706E,36.067,05022007,1:36:58,26.148,-79.258,369.03,-9.00,1021.02,1016.60,25.59,25.76,36.240,2.095,90.889,32.144,1021.02,68.400,21.300,335.000,24.706,361.48,2,-9.00,9,-9.00,0.10,15.84,22.02,20.9,227.65
AOML_Explorer,Ex0706E,36.069,05022007,1:39:31,26.154,-79.243,369.62,-9.00,1021.28,1017.90,25.56,25.75,36.242,2.079,91.688,32.142,1021.28,68.900,21.100,334.000,24.191,362.47,2,-9.00,9,-9.00,0.08,15.50,21.17,20.68,227.45
AOML_Explorer,Ex0706E,36.071,05022007,1:42:04,26.159,-79.227,369.82,-9.00,1021.21,1017.20,25.57,25.72,36.242,2.112,91.613,32.142,1021.21,68.300,21.100,330.000,24.191,362.11,2,-9.00,9,-9.00,0.08,16.10,15.21,20.79,228.16
AOML_Explorer,Ex0706E,36.073,05022007,1:44:37,26.165,-79.212,368.67,-9.00,1021.08,1017.20,25.54,25.70,36.251,2.144,92.014,32.140,1021.08,68.100,21.000,330.000,25.220,361.01,2,-9.00,9,-9.00,0.09,17.06,16.55,20.83,228.09
AOML_Explorer,Ex0706E,36.074,05022007,1:47:10,26.171,-79.197,367.99,-9.00,1021.30,1018.40,25.52,25.71,36.253,2.116,91.260,32.142,1021.30,67.900,21.000,336.000,24.191,360.76,2,-9.00,9,-9.00,0.10,15.23,23.81,20.91,227.98
AOML_Explorer,Ex0706E,36.076,05022007,1:49:43,26.176,-79.181,367.74,-9.00,1021.41,1016.80,25.52,25.69,36.259,2.111,91.667,32.140,1021.41,69.300,20.900,331.000,23.676,360.49,2,-9.00,9,-9.00,0.10,15.56,16.55,20.93,228.04
AOML_Explorer,Ex0706E,36.078,05022007,1:52:16,26.181,-79.166,367.63,-9.00,1020.99,1017.10,25.51,25.69,36.259,2.084,91.285,32.140,1020.99,69.600,20.900,334.000,24.706,360.22,2,-9.00,9,-9.00,0.10,16.03,22.61,21.01,227.92
AOML_Explorer,Ex0706E,36.080,05022007,1:54:49,26.186,-79.151,367.66,-9.00,1021.21,1017.00,25.50,25.68,36.252,2.086,91.689,32.139,1021.21,74.400,21.000,330.000,25.220,360.45,2,-9.00,9,-9.00,0.10,17.17,22.17,21.16,228.17
AOML_Explorer,Ex0706E,36.082,05022007,1:57:22,26.189,-79.134,367.57,-9.00,1021.02,1017.70,25.49,25.68,36.255,2.108,90.956,32.134,1021.02,79.100,21.000,331.000,24.706,360.31,2,-9.00,9,-9.00,0.10,16.50,27.48,21.09,228.02
AOML_Explorer,Ex0706E,36.083,05022007,1:59:55,26.191,-79.118,367.62,-9.00,1020.91,1015.60,25.49,25.66,36.261,2.129,91.618,32.132,1020.91,88.700,21.200,321.000,23.162,360.09,2,-9.00,9,-9.00,0.10,17.02,18.90,21.24,228.00
AOML_Explorer,Ex0706E,36.098,05022007,2:21:40,26.182,-78.976,363.54,-9.00,1021.12,1016.00,24.66,24.78,36.551,2.138,90.988,32.128,1021.12,100.300,22.000,314.000,22.647,356.13,2,-9.00,9,-9.00,0.09,17.64,20.79,21.09,229.69
AOML_Explorer,Ex0706E,36.100,05022007,2:24:13,26.179,-78.959,362.27,-9.00,1021.17,1015.90,24.65,24.68,36.599,2.118,90.980,32.118,1021.17,99.600,21.900,313.000,24.191,353.61,2,-9.00,9,-9.00,0.06,19.31,20.87,21,230.57
AOML_Explorer,Ex0706E,36.102,05022007,2:26:46,26.176,-78.942,362.18,-9.00,1021.21,1016.10,24.62,24.56,36.647,2.123,91.186,32.110,1021.21,99.300,21.800,319.000,24.191,352.16,2,-9.00,9,-9.00,0.08,18.04,28.50,21,231.03
AOML_Explorer,Ex0706E,36.104,05022007,2:29:19,26.174,-78.925,361.25,-9.00,1021.16,1016.40,24.51,24.54,36.640,2.092,91.032,32.103,1021.16,98.900,21.700,316.000,23.162,352.68,2,-9.00,9,-9.00,0.08,17.80,22.72,21.06,231.01
AOML_Explorer,Ex0706E,36.105,05022007,2:31:52,26.172,-78.908,360.39,-9.00,1021.26,1016.50,24.44,24.55,36.636,2.096,91.172,32.098,1021.26,99.300,21.700,313.000,23.676,353.06,2,-9.00,9,-9.00,0.08,18.85,20.40,20.95,230.90
AOML_Explorer,Ex0706E,36.107,05022007,2:34:25,26.169,-78.891,359.73,-9.00,1021.13,1016.50,24.43,24.57,36.632,2.114,91.289,32.091,1021.13,98.900,21.700,319.000,23.676,352.65,2,-9.00,9,-9.00,0.07,17.64,27.33,20.98,231.20
AOML_Explorer,Ex0706E,36.109,05022007,2:36:58,26.167,-78.875,359.72,-9.00,1021.21,1016.70,24.45,24.58,36.631,2.125,91.859,32.089,1021.21,99.100,21.800,319.000,21.617,352.70,2,-9.00,9,-9.00,0.08,15.78,24.12,21.04,231.28
AOML_Explorer,Ex0706E,36.111,05022007,2:39:31,26.164,-78.858,359.66,-9.00,1021.15,1016.30,24.45,24.59,36.646,2.120,91.301,32.086,1021.15,99.200,21.900,312.000,21.617,352.67,2,-9.00,9,-9.00,0.08,17.22,15.65,21.08,231.52
AOML_Explorer,Ex0706E,36.113,05022007,2:42:04,26.162,-78.841,359.99,-9.00,1021.32,1016.90,24.47,24.58,36.641,2.127,91.514,32.080,1021.32,99.100,22.000,318.000,21.617,352.69,2,-9.00,9,-9.00,0.08,15.94,22.71,21.19,231.69
AOML_Explorer,Ex0706E,36.114,05022007,2:44:37,26.159,-78.824,359.97,-9.00,1021.10,1016.60,24.46,24.58,36.643,2.104,91.466,32.073,1021.10,102.600,22.200,318.000,22.132,352.61,2,-9.00,9,-9.00,0.09,16.56,25.60,21.34,231.47
AOML_Explorer,Ex0706E,36.116,05022007,2:47:10,26.155,-78.806,359.81,-9.00,1021.08,1016.70,24.46,24.57,36.647,2.093,91.206,32.066,1021.08,101.900,22.200,317.000,20.073,352.42,2,-9.00,9,-9.00,0.08,14.96,20.08,21.47,231.36
AOML_Explorer,Ex0706E,36.118,05022007,2:49:43,26.152,-78.790,359.91,-9.00,1021.00,1016.20,24.46,24.57,36.643,2.134,91.394,32.062,1021.00,102.300,22.000,315.000,22.647,352.51,2,-9.00,9,-9.00,0.08,17.72,22.43,21.42,231.55
AOML_Explorer,Ex0706E,36.120,05022007,2:52:16,26.149,-78.773,359.87,-9.00,1021.04,1016.70,24.45,24.57,36.644,2.094,91.353,32.058,1021.04,102.300,22.100,315.000,21.617,352.50,2,-9.00,9,-9.00,0.09,16.74,21.01,21.6,231.65
AOML_Explorer,Ex0706E,36.121,05022007,2:54:49,26.145,-78.756,359.79,-9.00,1021.27,1016.70,24.45,24.57,36.643,2.072,91.586,32.054,1021.27,102.400,22.200,320.000,22.132,352.54,2,-9.00,9,-9.00,0.08,16.26,27.17,21.56,231.71
AOML_Explorer,Ex0706E,36.123,05022007,2:57:22,26.142,-78.739,359.61,-9.00,1021.00,1016.30,24.44,24.56,36.643,2.122,91.628,32.049,1021.00,102.700,22.300,317.000,24.191,352.26,2,-9.00,9,-9.00,0.09,18.63,27.10,21.55,231.74
AOML_Explorer,Ex0706E,36.125,05022007,2:59:55,26.139,-78.722,359.68,-9.00,1021.14,1016.40,24.44,24.56,36.643,2.105,91.679,32.045,1021.14,102.500,22.200,313.000,21.103,352.37,2,-9.00,9,-9.00,0.08,16.84,17.04,21.48,231.57
AOML_Explorer,Ex0706E,36.140,05022007,3:21:40,26.108,-78.576,359.04,-9.00,1021.10,1016.40,24.39,24.52,36.696,2.108,90.533,32.026,1021.10,102.000,22.300,317.000,23.676,351.89,2,-9.00,9,-9.00,0.06,17.94,27.06,21.6,231.69
AOML_Explorer,Ex0706E,36.142,05022007,3:24:13,26.105,-78.559,359.18,-9.00,1021.13,1016.90,24.39,24.79,36.547,2.086,91.015,32.015,1021.13,102.100,21.900,325.000,21.103,355.92,2,-9.00,9,-9.00,0.06,14.10,34.16,21.68,232.11
AOML_Explorer,Ex0706E,36.144,05022007,3:26:46,26.101,-78.542,359.43,-9.00,1021.20,1016.30,24.55,24.87,36.521,2.086,91.074,32.008,1021.20,103.900,21.900,319.000,21.617,355.04,2,-9.00,9,-9.00,0.06,15.74,29.13,21.7,232.29
AOML_Explorer,Ex0706E,36.145,05022007,3:29:19,26.097,-78.526,360.52,-9.00,1021.16,1016.50,24.67,24.88,36.522,2.108,91.147,32.001,1021.16,104.300,21.900,319.000,22.647,354.29,2,-9.00,9,-9.00,0.05,16.78,30.31,21.76,232.01
AOML_Explorer,Ex0706E,36.147,05022007,3:31:52,26.094,-78.509,361.23,-9.00,1021.18,1016.50,24.72,24.88,36.519,2.119,91.023,31.995,1021.18,105.800,22.000,317.000,22.647,354.47,2,-9.00,9,-9.00,0.06,17.13,29.38,21.8,232.03
AOML_Explorer,Ex0706E,36.149,05022007,3:34:25,26.089,-78.492,361.46,-9.00,1021.21,1016.90,24.73,24.95,36.481,2.100,90.986,31.988,1021.21,105.400,22.000,315.000,21.103,355.55,2,-9.00,9,-9.00,0.06,16.26,23.71,21.92,231.66
AOML_Explorer,Ex0706E,36.151,05022007,3:36:58,26.085,-78.476,361.34,-9.00,1021.09,1016.60,24.76,24.97,36.471,2.121,90.614,31.983,1021.09,105.700,22.000,314.000,20.588,355.14,2,-9.00,9,-9.00,0.06,16.02,21.86,21.88,231.29
AOML_Explorer,Ex0706E,36.152,05022007,3:39:31,26.081,-78.459,361.75,-9.00,1021.61,1016.70,24.82,24.93,36.475,2.108,91.454,31.979,1021.61,105.400,21.800,315.000,22.132,354.26,2,-9.00,9,-9.00,0.09,17.10,26.06,21.8,231.24
AOML_Explorer,Ex0706E,36.154,05022007,3:42:04,26.077,-78.443,362.00,-9.00,1021.22,1016.40,24.78,25.07,36.411,2.063,91.344,31.977,1021.22,106.300,21.700,315.000,21.617,356.89,2,-9.00,9,-9.00,0.08,16.85,25.25,21.78,230.38
AOML_Explorer,Ex0706E,36.156,05022007,3:44:37,26.073,-78.427,361.73,-9.00,1021.19,1016.50,24.84,25.10,36.406,2.083,91.548,31.973,1021.19,106.600,21.700,313.000,23.162,356.26,2,-9.00,9,-9.00,0.08,18.57,25.86,21.9,230.20
AOML_Explorer,Ex0706E,36.158,05022007,3:47:10,26.068,-78.410,361.90,-9.00,1021.27,1016.70,24.91,25.11,36.417,2.084,91.366,31.969,1021.27,106.700,21.600,320.000,21.617,355.50,2,-9.00,9,-9.00,0.06,16.01,30.84,21.79,230.58
AOML_Explorer,Ex0706E,36.160,05022007,3:49:43,26.064,-78.394,362.43,-9.00,1021.45,1016.30,24.94,25.03,36.454,2.099,91.421,31.966,1021.45,105.900,21.600,318.000,23.676,354.42,2,-9.00,9,-9.00,0.06,18.10,31.74,21.85,231.05
AOML_Explorer,Ex0706E,36.161,05022007,3:52:16,26.060,-78.378,362.70,-9.00,1021.22,1016.40,24.92,24.84,36.513,2.095,91.186,31.964,1021.22,105.400,21.500,320.000,22.647,352.26,2,-9.00,9,-9.00,0.06,16.71,32.87,21.85,231.53
AOML_Explorer,Ex0706E,36.163,05022007,3:54:49,26.056,-78.362,362.59,-9.00,1020.96,1016.30,24.80,24.66,36.563,2.098,91.725,31.959,1020.96,105.300,21.600,316.000,21.617,351.26,2,-9.00,9,-9.00,0.06,16.39,27.16,21.85,231.90
AOML_Explorer,Ex0706E,36.165,05022007,3:57:22,26.052,-78.345,362.06,-9.00,1020.91,1016.40,24.61,24.69,36.535,2.092,91.682,31.958,1020.91,104.400,21.700,314.000,23.162,353.94,2,-9.00,9,-9.00,0.06,18.03,26.85,21.83,232.19
AOML_Explorer,Ex0706E,36.167,05022007,3:59:55,26.048,-78.329,361.04,-9.00,1020.85,1016.00,24.55,25.02,36.420,2.077,91.222,31.953,1020.85,102.100,21.600,318.000,24.706,358.68,2,-9.00,9,-9.00,0.05,18.24,34.44,21.85,231.85
AOML_Explorer,Ex0706E,36.182,05022007,4:21:40,26.012,-78.187,366.38,-9.00,1020.48,1015.70,25.45,25.62,36.272,2.051,90.784,31.953,1020.48,106.500,22.400,317.000,24.191,358.85,2,-9.00,9,-9.00,0.06,18.38,32.19,21.98,229.33
AOML_Explorer,Ex0706E,36.183,05022007,4:24:13,26.007,-78.171,366.50,-9.00,1020.68,1015.80,25.43,25.62,36.271,2.088,90.562,31.944,1020.68,107.000,22.400,320.000,24.191,359.30,2,-9.00,9,-9.00,0.07,17.83,35.81,21.96,229.40
AOML_Explorer,Ex0706E,36.185,05022007,4:26:46,26.002,-78.154,366.59,-9.00,1020.62,1015.40,25.42,25.62,36.272,2.089,90.658,31.939,1020.62,107.100,22.400,320.000,24.191,359.45,2,-9.00,9,-9.00,0.06,17.88,35.88,21.81,229.39
AOML_Explorer,Ex0706E,36.187,05022007,4:29:19,25.998,-78.137,366.52,-9.00,1020.55,1016.20,25.42,25.60,36.277,2.085,91.270,31.935,1020.55,106.800,22.400,314.000,22.647,359.15,2,-9.00,9,-9.00,0.06,17.75,26.04,21.8,229.54
AOML_Explorer,Ex0706E,36.189,05022007,4:31:52,25.994,-78.120,366.43,-9.00,1020.71,1015.90,25.41,25.58,36.282,2.089,90.917,31.933,1020.71,105.700,22.200,315.000,24.191,358.89,2,-9.00,9,-9.00,0.06,18.99,28.22,21.7,229.73
AOML_Explorer,Ex0706E,36.191,05022007,4:34:25,25.989,-78.104,366.13,-9.00,1020.46,1015.30,25.39,25.56,36.291,2.077,91.123,31.931,1020.46,106.400,22.300,314.000,23.162,358.50,2,-9.00,9,-9.00,0.06,18.34,25.77,21.71,229.62
AOML_Explorer,Ex0706E,36.192,05022007,4:36:58,25.985,-78.087,366.08,-9.00,1020.64,1015.30,25.38,25.50,36.305,2.087,90.963,31.931,1020.64,105.000,22.200,312.000,22.647,357.95,2,-9.00,9,-9.00,0.06,18.36,21.19,21.76,230.11
AOML_Explorer,Ex0706E,36.194,05022007,4:39:31,25.981,-78.070,365.86,-9.00,1020.57,1015.60,25.34,25.48,36.308,2.095,90.370,31.926,1020.57,103.900,22.100,316.000,24.191,357.90,2,-9.00,9,-9.00,0.06,18.95,26.77,21.65,230.27
AOML_Explorer,Ex0706E,36.196,05022007,4:42:04,25.977,-78.054,365.40,-9.00,1020.57,1016.10,25.31,25.44,36.326,2.095,91.161,31.925,1020.57,103.300,22.200,312.000,21.617,357.34,2,-9.00,9,-9.00,0.06,17.51,17.64,21.68,230.58
AOML_Explorer,Ex0706E,36.198,05022007,4:44:37,25.974,-78.037,365.03,-9.00,1020.44,1016.00,25.28,25.34,36.379,2.080,90.758,31.924,1020.44,104.000,22.300,313.000,24.191,356.10,2,-9.00,9,-9.00,0.05,19.58,22.97,21.6,230.83
AOML_Explorer,Ex0706E,36.199,05022007,4:47:10,25.970,-78.020,365.24,-9.00,1020.53,1015.90,25.23,25.07,36.451,2.089,91.131,31.922,1020.53,104.200,22.300,316.000,24.191,353.09,2,-9.00,9,-9.00,0.08,18.89,26.96,21.55,230.78
AOML_Explorer,Ex0706E,36.201,05022007,4:49:43,25.966,-78.003,365.22,-9.00,1020.48,1016.40,25.06,24.98,36.472,2.106,91.148,31.919,1020.48,104.200,22.200,317.000,23.676,354.19,2,-9.00,9,-9.00,0.07,18.30,27.36,21.59,230.34
AOML_Explorer,Ex0706E,36.203,05022007,4:52:16,25.962,-77.986,363.75,-9.00,1020.52,1016.20,24.91,24.91,36.532,2.081,91.071,31.917,1020.52,103.200,22.000,323.000,23.162,354.08,2,-9.00,9,-9.00,0.06,16.67,33.80,21.61,230.56
AOML_Explorer,Ex0706E,36.205,05022007,4:54:49,25.958,-77.970,362.88,-9.00,1020.21,1015.30,24.81,24.87,36.561,2.095,90.792,31.914,1020.21,106.500,22.200,315.000,23.162,354.15,2,-9.00,9,-9.00,0.06,17.89,28.61,21.6,231.50
AOML_Explorer,Ex0706E,36.207,05022007,4:57:22,25.954,-77.953,362.89,-9.00,1020.38,1014.80,24.77,24.83,36.556,2.100,91.121,31.911,1020.38,107.100,22.000,316.000,22.132,354.21,2,-9.00,9,-9.00,0.06,16.82,29.02,21.6,231.79
AOML_Explorer,Ex0706E,36.208,05022007,4:59:55,25.949,-77.937,362.65,-9.00,1020.16,1015.40,24.71,24.80,36.568,2.106,90.891,31.909,1020.16,107.200,21.800,315.000,23.676,354.29,2,-9.00,9,-9.00,0.09,18.39,30.62,21.59,231.65
AOML_Explorer,Ex0706E,36.223,05022007,5:21:40,25.906,-77.796,361.83,-9.00,1020.14,1015.50,24.60,24.69,36.603,2.079,90.628,31.917,1020.14,107.000,22.400,320.000,22.647,353.63,2,-9.00,9,-9.00,0.06,16.61,32.76,21.84,232.24
AOML_Explorer,Ex0706E,36.225,05022007,5:24:13,25.902,-77.779,361.52,-9.00,1020.21,1015.50,24.57,24.63,36.632,2.088,90.831,31.914,1020.21,107.100,22.400,318.000,23.162,352.81,2,-9.00,9,-9.00,0.07,17.48,31.18,21.8,232.41
AOML_Explorer,Ex0706E,36.227,05022007,5:26:46,25.897,-77.762,361.07,-9.00,1020.06,1015.60,24.56,24.56,36.673,2.116,90.937,31.909,1020.06,107.000,22.400,315.000,21.617,351.64,2,-9.00,9,-9.00,0.05,16.75,25.03,21.86,232.44
AOML_Explorer,Ex0706E,36.229,05022007,5:29:19,25.893,-77.746,359.39,-9.00,1020.27,1015.60,24.48,24.53,36.676,2.085,91.067,31.899,1020.27,105.900,22.300,319.000,22.132,350.81,2,-9.00,9,-9.00,0.05,16.21,30.73,21.78,232.78
AOML_Explorer,Ex0706E,36.230,05022007,5:31:52,25.888,-77.729,354.36,-9.00,1020.10,1015.50,24.42,24.57,36.654,2.032,90.785,31.897,1020.10,106.300,22.200,320.000,23.676,347.36,2,-9.00,9,-9.00,0.06,17.40,34.94,21.87,232.86
AOML_Explorer,Ex0706E,36.232,05022007,5:34:25,25.884,-77.712,357.19,-9.00,1020.10,1015.20,24.42,24.57,36.657,2.059,91.244,31.891,1020.10,106.800,22.200,316.000,23.162,350.03,2,-9.00,9,-9.00,0.06,17.82,29.33,21.8,232.84
AOML_Explorer,Ex0706E,36.234,05022007,5:36:58,25.879,-77.696,358.87,-9.00,1020.09,1015.40,24.45,24.60,36.649,2.083,91.063,31.888,1020.09,106.500,22.200,319.000,22.647,351.73,2,-9.00,9,-9.00,0.05,16.77,31.77,21.85,233.06
AOML_Explorer,Ex0706E,36.236,05022007,5:39:31,25.875,-77.679,359.33,-9.00,1020.19,1015.20,24.45,24.63,36.654,2.063,91.183,31.886,1020.19,106.500,22.300,316.000,21.617,352.55,2,-9.00,9,-9.00,0.05,16.42,26.82,21.92,233.16
AOML_Explorer,Ex0706E,36.238,05022007,5:42:04,25.870,-77.662,359.84,-9.00,1020.19,1015.50,24.49,24.63,36.658,2.066,91.327,31.885,1020.19,106.200,22.400,316.000,22.132,352.43,2,-9.00,9,-9.00,0.05,16.85,27.04,21.82,233.30
AOML_Explorer,Ex0706E,36.239,05022007,5:44:37,25.866,-77.645,360.40,-9.00,1020.19,1015.60,24.50,24.59,36.677,2.048,91.254,31.883,1020.19,106.700,22.400,316.000,21.617,352.23,2,-9.00,9,-9.00,0.05,16.52,25.98,21.84,233.21
AOML_Explorer,Ex0706E,36.241,05022007,5:47:10,25.861,-77.629,360.01,-9.00,1019.97,1015.60,24.48,24.54,36.677,2.058,91.064,31.882,1019.97,106.700,22.600,315.000,21.617,351.36,2,-9.00,9,-9.00,0.05,16.60,25.10,21.75,233.34
AOML_Explorer,Ex0706E,36.243,05022007,5:49:43,25.857,-77.612,358.99,-9.00,1020.09,1015.10,24.45,24.52,36.681,2.059,90.976,31.880,1020.09,106.200,22.500,315.000,22.647,350.64,2,-9.00,9,-9.00,0.05,17.44,26.86,21.69,233.12
AOML_Explorer,Ex0706E,36.245,05022007,5:52:16,25.852,-77.595,357.47,-9.00,1019.88,1015.70,24.41,24.56,36.663,2.071,90.833,31.883,1019.88,105.600,22.600,317.000,22.132,350.27,2,-9.00,9,-9.00,0.06,16.52,27.84,21.78,233.25
AOML_Explorer,Ex0706E,36.246,05022007,5:54:49,25.848,-77.577,357.94,-9.00,1020.09,1015.40,24.42,24.60,36.657,2.063,91.095,31.880,1020.09,105.900,22.600,313.000,22.132,351.12,2,-9.00,9,-9.00,0.05,17.23,24.16,21.69,233.17
AOML_Explorer,Ex0706E,36.248,05022007,5:57:22,25.844,-77.560,358.74,-9.00,1020.06,1015.50,24.46,24.51,36.683,2.052,91.235,31.880,1020.06,105.400,22.700,316.000,23.162,350.14,2,-9.00,9,-9.00,0.06,17.51,28.56,21.71,233.08
AOML_Explorer,Ex0706E,36.250,05022007,5:59:55,25.840,-77.543,359.50,-9.00,1019.85,1015.60,24.43,24.45,36.698,2.053,91.579,31.879,1019.85,103.700,22.800,316.000,23.162,350.36,2,-9.00,9,-9.00,0.06,17.25,28.19,21.65,233.12
AOML_Explorer,Ex0706E,36.265,05022007,6:21:40,25.802,-77.396,355.91,-9.00,1019.56,1015.30,24.40,24.62,36.768,2.078,90.858,31.917,1019.56,106.000,22.800,317.000,22.647,349.49,2,-9.00,9,-9.00,0.07,16.74,29.96,21.82,232.82
AOML_Explorer,Ex0706E,36.267,05022007,6:24:13,25.798,-77.379,358.82,-9.00,1019.69,1014.70,24.48,24.58,36.765,2.090,90.974,31.916,1019.69,106.000,22.800,321.000,24.191,350.78,2,-9.00,9,-9.00,0.07,17.39,36.79,21.75,232.93
AOML_Explorer,Ex0706E,36.269,05022007,6:26:46,25.793,-77.362,360.11,-9.00,1019.59,1014.90,24.47,24.49,36.737,2.062,91.170,31.916,1019.59,106.000,22.800,318.000,22.132,350.92,2,-9.00,9,-9.00,0.05,16.18,29.76,21.71,233.20
AOML_Explorer,Ex0706E,36.270,05022007,6:29:19,25.789,-77.345,360.04,-9.00,1019.68,1015.50,24.41,24.47,36.721,2.083,90.891,31.913,1019.68,106.600,23.000,318.000,21.103,351.39,2,-9.00,9,-9.00,0.06,15.24,28.26,21.81,233.14
AOML_Explorer,Ex0706E,36.272,05022007,6:31:52,25.784,-77.328,358.75,-9.00,1019.67,1015.10,24.36,24.51,36.715,2.092,90.618,31.909,1019.67,106.600,22.900,317.000,22.647,351.38,2,-9.00,9,-9.00,0.06,16.82,29.88,21.84,233.16
AOML_Explorer,Ex0706E,36.274,05022007,6:34:25,25.780,-77.311,357.94,-9.00,1019.56,1015.00,24.35,24.59,36.715,2.050,90.793,31.908,1019.56,106.300,22.800,314.000,22.647,351.81,2,-9.00,9,-9.00,0.05,17.53,26.00,21.77,233.15
AOML_Explorer,Ex0706E,36.276,05022007,6:36:58,25.775,-77.294,357.89,-9.00,1019.59,1015.00,24.42,24.62,36.689,2.067,91.242,31.904,1019.59,106.900,22.800,318.000,23.676,351.21,2,-9.00,9,-9.00,0.05,17.62,32.44,21.77,233.56
AOML_Explorer,Ex0706E,36.277,05022007,6:39:31,25.770,-77.277,355.95,-9.00,1019.60,1015.20,24.47,24.61,36.670,2.078,91.179,31.903,1019.60,106.800,22.800,316.000,21.103,348.43,2,-9.00,9,-9.00,0.05,15.84,25.58,21.84,233.47
AOML_Explorer,Ex0706E,36.279,05022007,6:42:04,25.766,-77.260,353.46,-9.00,1019.45,1013.90,24.48,24.62,36.656,2.067,90.996,31.905,1019.45,106.800,22.900,318.000,23.676,345.94,2,-9.00,9,-9.00,0.05,17.72,31.70,21.98,233.02
AOML_Explorer,Ex0706E,36.281,05022007,6:44:37,25.761,-77.243,351.55,-9.00,1019.14,1014.10,24.47,24.62,36.664,2.063,91.156,31.907,1019.14,106.100,22.600,316.000,23.162,344.13,2,-9.00,9,-9.00,0.05,17.57,29.19,22.06,232.89
AOML_Explorer,Ex0706E,36.283,05022007,6:47:10,25.756,-77.227,351.13,-9.00,1019.34,1014.60,24.49,24.61,36.670,2.051,90.934,31.908,1019.34,107.400,22.400,314.000,23.676,343.26,2,-9.00,9,-9.00,0.05,18.51,28.91,22.02,233.11